TAP711 SBGL-FNBJ

Flight info

Callsign TAP711
Flight time N/A
Altitude 35000
Route ADA UL340 AKVET DCT 22S030W/N0465F370 DCT PAKAR DCT 20S020W DCT ROGOM DCT 17S010W DCT APRAS DCT 14S000E DCT AVIGI/N0463F390 DCT BOSNI DCT UDANO
Aircraft A339/H-SADE1E2E3GHIJ3J5M1P2RWXY/LB2D1

Departure

Time N/A
Airport Rio Galeão – Tom Jobim International Airport (SBGL)

Arrival

Time 2026-04-20 00:50
Airport Dr. Antonio Agostinho Neto International Airport (FNBJ)
Time Latitude Longitude Altitude Speed Heading
2026-04-19 18:35 -22.23274 -32.44414 34928 ft 454 kts 87°
2026-04-19 18:36 -22.22981 -32.41074 34928 ft 454 kts 87°
2026-04-19 18:36 -22.22394 -32.34402 34928 ft 454 kts 86°
2026-04-19 18:37 -22.21795 -32.27634 34928 ft 454 kts 86°
2026-04-19 18:37 -22.21195 -32.20873 34928 ft 454 kts 86°
2026-04-19 18:38 -22.20592 -32.14114 34928 ft 454 kts 86°
2026-04-19 18:38 -22.19986 -32.07355 34928 ft 454 kts 86°
2026-04-19 18:39 -22.19377 -32.00594 34928 ft 454 kts 86°
2026-04-19 18:39 -22.18765 -31.93832 34928 ft 454 kts 86°
2026-04-19 18:40 -22.18150 -31.87071 34928 ft 454 kts 86°
2026-04-19 18:40 -22.17533 -31.80321 34928 ft 454 kts 86°
2026-04-19 18:41 -22.16912 -31.73555 34928 ft 454 kts 86°
2026-04-19 18:41 -22.16290 -31.66801 34928 ft 454 kts 86°
2026-04-19 18:42 -22.15664 -31.60048 34928 ft 454 kts 86°
2026-04-19 18:42 -22.15036 -31.53298 34928 ft 454 kts 86°
2026-04-19 18:43 -22.14404 -31.46533 34928 ft 454 kts 86°
2026-04-19 18:43 -22.13771 -31.39786 34928 ft 454 kts 86°
2026-04-19 18:44 -22.13134 -31.33033 34929 ft 454 kts 86°
2026-04-19 18:44 -22.12494 -31.26283 34928 ft 454 kts 86°
2026-04-19 18:45 -22.11849 -31.19511 34928 ft 454 kts 86°
2026-04-19 18:45 -22.11202 -31.12757 34928 ft 454 kts 86°
2026-04-19 18:46 -22.10550 -31.05984 34927 ft 455 kts 87°
2026-04-19 18:46 -22.09908 -30.99323 34927 ft 456 kts 87°
2026-04-19 18:47 -22.09251 -30.92531 34928 ft 457 kts 87°
2026-04-19 18:47 -22.08592 -30.85734 34928 ft 457 kts 87°
2026-04-19 18:48 -22.07930 -30.78945 34928 ft 457 kts 87°
2026-04-19 18:48 -22.07263 -30.72149 34928 ft 457 kts 87°
2026-04-19 18:49 -22.06594 -30.65351 34928 ft 457 kts 87°
2026-04-19 18:49 -22.05921 -30.58556 34928 ft 457 kts 87°
2026-04-19 18:50 -22.05246 -30.51763 34928 ft 457 kts 87°
2026-04-19 18:50 -22.04569 -30.44975 34928 ft 457 kts 87°
2026-04-19 18:51 -22.03887 -30.38177 34928 ft 457 kts 87°
2026-04-19 18:51 -22.03204 -30.31389 34928 ft 457 kts 87°
2026-04-19 18:52 -22.02171 -30.21202 34928 ft 457 kts 87°
2026-04-19 18:52 -22.01480 -30.14416 34928 ft 457 kts 87°
2026-04-19 18:53 -22.00785 -30.07620 34928 ft 457 kts 87°
2026-04-19 18:53 -21.99907 -30.00837 34928 ft 459 kts 82°
2026-04-19 18:54 -21.98383 -29.94159 34928 ft 462 kts 77°
2026-04-19 18:54 -21.96546 -29.87552 34928 ft 462 kts 76°
2026-04-19 18:55 -21.94696 -29.80943 34928 ft 462 kts 76°
2026-04-19 18:55 -21.92847 -29.74341 34928 ft 462 kts 76°
2026-04-19 18:56 -21.90996 -29.67736 34928 ft 462 kts 76°
2026-04-19 18:56 -21.89144 -29.61137 34926 ft 462 kts 77°
2026-04-19 18:57 -21.87286 -29.54528 34927 ft 462 kts 77°
2026-04-19 18:57 -21.85429 -29.47933 34927 ft 462 kts 77°
2026-04-19 18:58 -21.83570 -29.41339 34927 ft 462 kts 77°
2026-04-19 18:58 -21.81708 -29.34748 34928 ft 462 kts 76°
2026-04-19 18:59 -21.79840 -29.28147 34928 ft 462 kts 76°
2026-04-19 18:59 -21.77973 -29.21557 34928 ft 462 kts 76°
2026-04-19 19:00 -21.76101 -29.14964 34928 ft 462 kts 76°
2026-04-19 19:00 -21.74228 -29.08376 34928 ft 462 kts 76°
2026-04-19 19:01 -21.72350 -29.01781 34926 ft 462 kts 76°
2026-04-19 19:01 -21.70472 -28.95200 34922 ft 461 kts 76°
2026-04-19 19:02 -21.68595 -28.88634 34916 ft 460 kts 76°
2026-04-19 19:02 -21.66720 -28.82084 34910 ft 459 kts 76°
2026-04-19 19:03 -21.64849 -28.75557 34905 ft 459 kts 76°
2026-04-19 19:03 -21.62978 -28.69040 34903 ft 459 kts 76°
2026-04-19 19:04 -21.61110 -28.62548 34902 ft 459 kts 76°
2026-04-19 19:04 -21.59232 -28.56028 34901 ft 459 kts 76°
2026-04-19 19:05 -21.57347 -28.49495 34901 ft 459 kts 76°
2026-04-19 19:05 -21.55463 -28.42974 34901 ft 459 kts 76°
2026-04-19 19:06 -21.53576 -28.36456 34901 ft 459 kts 76°
2026-04-19 19:06 -21.51687 -28.29939 34902 ft 459 kts 76°
2026-04-19 19:07 -21.49793 -28.23418 34901 ft 459 kts 76°
2026-04-19 19:07 -21.47896 -28.16896 34901 ft 459 kts 76°
2026-04-19 19:08 -21.45998 -28.10383 34901 ft 459 kts 76°
2026-04-19 19:08 -21.44099 -28.03873 34901 ft 459 kts 76°
2026-04-19 19:09 -21.42191 -27.97346 34901 ft 459 kts 76°
2026-04-19 19:09 -21.40285 -27.90833 34901 ft 459 kts 76°
2026-04-19 19:10 -21.38376 -27.84323 34901 ft 459 kts 76°
2026-04-19 19:10 -21.36465 -27.77814 34901 ft 459 kts 76°
2026-04-19 19:11 -21.34548 -27.71296 34901 ft 459 kts 76°
2026-04-19 19:11 -21.32633 -27.64794 34901 ft 459 kts 76°
2026-04-19 19:12 -21.30714 -27.58290 34901 ft 459 kts 76°
2026-04-19 19:12 -21.28792 -27.51787 34901 ft 459 kts 76°
2026-04-19 19:13 -21.26866 -27.45280 34901 ft 459 kts 76°
2026-04-19 19:13 -21.24939 -27.38779 34901 ft 459 kts 76°
2026-04-19 19:14 -21.23004 -27.32261 34902 ft 459 kts 75°
2026-04-19 19:14 -21.21076 -27.25778 34901 ft 459 kts 75°
2026-04-19 19:15 -21.19140 -27.19278 34901 ft 459 kts 75°
2026-04-19 19:15 -21.17202 -27.12778 34901 ft 459 kts 75°
2026-04-19 19:16 -21.15353 -27.06585 34900 ft 461 kts 75°
2026-04-19 19:16 -21.13398 -27.00043 34900 ft 465 kts 75°
2026-04-19 19:17 -21.11421 -26.93438 34900 ft 468 kts 75°
2026-04-19 19:17 -21.09434 -26.86816 34901 ft 470 kts 75°
2026-04-19 19:18 -21.07436 -26.80181 34901 ft 470 kts 75°
2026-04-19 19:18 -21.05438 -26.73552 34902 ft 469 kts 75°
2026-04-19 19:19 -21.03441 -26.66931 34902 ft 469 kts 75°
2026-04-19 19:20 -21.00446 -26.57017 34902 ft 468 kts 75°
2026-04-19 19:20 -20.98450 -26.50424 34902 ft 467 kts 75°
2026-04-19 19:21 -20.96454 -26.43838 34902 ft 466 kts 75°
2026-04-19 19:21 -20.94461 -26.37272 34902 ft 466 kts 75°
2026-04-19 19:22 -20.92466 -26.30709 34902 ft 466 kts 75°
2026-04-19 19:22 -20.90467 -26.24147 34901 ft 466 kts 75°
2026-04-19 19:23 -20.88463 -26.17578 34900 ft 466 kts 75°
2026-04-19 19:23 -20.86461 -26.11023 34901 ft 466 kts 75°
2026-04-19 19:24 -20.84449 -26.04448 34901 ft 466 kts 75°
2026-04-19 19:24 -20.82445 -25.97910 34901 ft 466 kts 75°
2026-04-19 19:25 -20.80432 -25.91351 34901 ft 465 kts 75°
2026-04-19 19:25 -20.78417 -25.84801 34901 ft 466 kts 75°
2026-04-19 19:26 -20.76401 -25.78255 34901 ft 466 kts 75°
2026-04-19 19:26 -20.74448 -25.71693 34901 ft 464 kts 77°
2026-04-19 19:27 -20.73055 -25.65000 34901 ft 462 kts 84°
2026-04-19 19:27 -20.72226 -25.58232 34901 ft 461 kts 86°
2026-04-19 19:28 -20.71469 -25.51463 34901 ft 461 kts 86°
2026-04-19 19:28 -20.70707 -25.44694 34901 ft 461 kts 86°
2026-04-19 19:29 -20.69937 -25.37915 34901 ft 461 kts 86°
2026-04-19 19:29 -20.69164 -25.31147 34901 ft 461 kts 86°
2026-04-19 19:30 -20.68389 -25.24376 34901 ft 461 kts 86°
2026-04-19 19:30 -20.67610 -25.17609 34902 ft 461 kts 86°
2026-04-19 19:31 -20.66830 -25.10851 34902 ft 458 kts 85°
2026-04-19 19:31 -20.66054 -25.04144 34902 ft 455 kts 85°
2026-04-19 19:32 -20.65279 -24.97475 34902 ft 453 kts 85°
2026-04-19 19:32 -20.64506 -24.90848 34901 ft 451 kts 85°
2026-04-19 19:33 -20.63730 -24.84224 34901 ft 451 kts 85°
2026-04-19 19:33 -20.62952 -24.77606 34901 ft 451 kts 85°
2026-04-19 19:34 -20.62173 -24.70995 34901 ft 451 kts 85°
2026-04-19 19:34 -20.61391 -24.64382 34901 ft 451 kts 85°
2026-04-19 19:35 -20.60606 -24.57764 34901 ft 451 kts 85°
2026-04-19 19:35 -20.59819 -24.51150 34901 ft 451 kts 85°
2026-04-19 19:36 -20.59030 -24.44536 34901 ft 451 kts 85°
2026-04-19 19:36 -20.58237 -24.37920 34901 ft 451 kts 85°
2026-04-19 19:37 -20.57444 -24.31318 34902 ft 451 kts 85°
2026-04-19 19:37 -20.56644 -24.24686 34901 ft 451 kts 85°
2026-04-19 19:38 -20.55844 -24.18073 34901 ft 451 kts 85°
2026-04-19 19:38 -20.55041 -24.11458 34901 ft 451 kts 85°
2026-04-19 19:39 -20.54237 -24.04847 34901 ft 451 kts 85°
2026-04-19 19:39 -20.53427 -23.98221 34901 ft 451 kts 85°
2026-04-19 19:40 -20.52617 -23.91612 34899 ft 451 kts 85°
2026-04-19 19:40 -20.51837 -23.85263 34894 ft 451 kts 85°
2026-04-19 19:41 -20.51020 -23.78633 34887 ft 451 kts 85°
2026-04-19 19:41 -20.50204 -23.72037 34880 ft 451 kts 85°
2026-04-19 19:42 -20.49384 -23.65428 34876 ft 451 kts 85°
2026-04-19 19:42 -20.48561 -23.58823 34875 ft 451 kts 85°
2026-04-19 19:43 -20.47736 -23.52215 34875 ft 451 kts 85°
2026-04-19 19:43 -20.46907 -23.45596 34875 ft 451 kts 85°
2026-04-19 19:44 -20.46078 -23.38996 34875 ft 451 kts 85°
2026-04-19 19:44 -20.45245 -23.32388 34875 ft 451 kts 84°
2026-04-19 19:45 -20.44409 -23.25780 34875 ft 451 kts 84°
2026-04-19 19:45 -20.43570 -23.19161 34875 ft 451 kts 84°
2026-04-19 19:46 -20.42728 -23.12544 34875 ft 451 kts 84°
2026-04-19 19:46 -20.41884 -23.05929 34875 ft 451 kts 84°
2026-04-19 19:47 -20.41038 -22.99319 34875 ft 451 kts 84°
2026-04-19 19:47 -20.40193 -22.92731 34875 ft 449 kts 84°
2026-04-19 19:48 -20.39347 -22.86157 34875 ft 448 kts 84°
2026-04-19 19:48 -20.38502 -22.79610 34875 ft 446 kts 84°
2026-04-19 19:49 -20.37660 -22.73122 34875 ft 446 kts 84°
2026-04-19 19:49 -20.36812 -22.66605 34875 ft 446 kts 84°
2026-04-19 19:50 -20.35962 -22.60081 34875 ft 446 kts 84°
2026-04-19 19:50 -20.35109 -22.53555 34875 ft 446 kts 84°
2026-04-19 19:51 -20.34254 -22.47035 34875 ft 446 kts 84°
2026-04-19 19:51 -20.33396 -22.40514 34875 ft 446 kts 84°
2026-04-19 19:52 -20.32537 -22.33999 34876 ft 446 kts 84°
2026-04-19 19:52 -20.31676 -22.27484 34875 ft 446 kts 84°
2026-04-19 19:53 -20.30810 -22.20960 34875 ft 446 kts 84°
2026-04-19 19:53 -20.29943 -22.14441 34875 ft 446 kts 84°
2026-04-19 19:54 -20.29073 -22.07919 34875 ft 446 kts 84°
2026-04-19 19:54 -20.28201 -22.01404 34875 ft 446 kts 84°
2026-04-19 19:55 -20.27328 -21.94894 34875 ft 446 kts 84°
2026-04-19 19:55 -20.26451 -21.88380 34875 ft 446 kts 84°
2026-04-19 19:56 -20.25572 -21.81864 34875 ft 446 kts 84°
2026-04-19 19:56 -20.24690 -21.75350 34875 ft 446 kts 84°
2026-04-19 19:57 -20.23807 -21.68840 34875 ft 446 kts 84°
2026-04-19 19:57 -20.22920 -21.62321 34875 ft 446 kts 84°
2026-04-19 19:58 -20.22031 -21.55813 34875 ft 446 kts 84°
2026-04-19 19:58 -20.21140 -21.49303 34875 ft 446 kts 84°
2026-04-19 19:59 -20.20247 -21.42792 34875 ft 446 kts 84°
2026-04-19 19:59 -20.19351 -21.36287 34875 ft 446 kts 84°
2026-04-19 20:00 -20.18452 -21.29771 34875 ft 446 kts 83°
2026-04-19 20:00 -20.17551 -21.23265 34875 ft 446 kts 83°
2026-04-19 20:01 -20.16648 -21.16760 34874 ft 446 kts 83°
2026-04-19 20:01 -20.15741 -21.10246 34874 ft 446 kts 83°
2026-04-19 20:02 -20.14833 -21.03732 34874 ft 448 kts 83°
2026-04-19 20:02 -20.13918 -20.97193 34874 ft 449 kts 83°
2026-04-19 20:03 -20.12998 -20.90631 34874 ft 451 kts 83°
2026-04-19 20:03 -20.12071 -20.84043 34874 ft 452 kts 83°
2026-04-19 20:04 -20.11140 -20.77454 34875 ft 452 kts 83°
2026-04-19 20:04 -20.10207 -20.70861 34875 ft 452 kts 83°
2026-04-19 20:05 -20.09271 -20.64266 34875 ft 452 kts 83°
2026-04-19 20:05 -20.08332 -20.57673 34875 ft 452 kts 83°
2026-04-19 20:06 -20.07393 -20.51091 34875 ft 452 kts 83°
2026-04-19 20:06 -20.06451 -20.44504 34875 ft 452 kts 83°
2026-04-19 20:07 -20.05505 -20.37914 34875 ft 452 kts 83°
2026-04-19 20:07 -20.04556 -20.31321 34875 ft 452 kts 83°
2026-04-19 20:08 -20.03605 -20.24732 34875 ft 452 kts 83°
2026-04-19 20:08 -20.02651 -20.18146 34874 ft 452 kts 83°
2026-04-19 20:09 -20.01692 -20.11550 34875 ft 453 kts 83°
2026-04-19 20:09 -20.00733 -20.04957 34875 ft 452 kts 83°
2026-04-19 20:10 -19.99551 -19.98395 34943 ft 455 kts 78°
2026-04-19 20:10 -19.98737 -19.95154 35185 ft 455 kts 76°
2026-04-19 20:10 -19.97891 -19.91935 35464 ft 453 kts 76°
2026-04-19 20:10 -19.97042 -19.88730 35712 ft 452 kts 76°
2026-04-19 20:11 -19.96194 -19.85530 35926 ft 451 kts 76°
2026-04-19 20:11 -19.95345 -19.82328 36113 ft 451 kts 76°
2026-04-19 20:11 -19.94496 -19.79131 36269 ft 452 kts 76°
2026-04-19 20:11 -19.93648 -19.75933 36405 ft 452 kts 76°
2026-04-19 20:12 -19.92795 -19.72724 36538 ft 453 kts 76°
2026-04-19 20:12 -19.91940 -19.69509 36669 ft 454 kts 76°
2026-04-19 20:12 -19.91084 -19.66290 36797 ft 455 kts 76°
2026-04-19 20:13 -19.89367 -19.59841 36929 ft 456 kts 76°
2026-04-19 20:13 -19.87640 -19.53370 36966 ft 456 kts 76°
2026-04-19 20:14 -19.85911 -19.46901 36910 ft 456 kts 76°
2026-04-19 20:14 -19.84183 -19.40442 36881 ft 456 kts 76°
2026-04-19 20:15 -19.82735 -19.35039 36882 ft 460 kts 76°
2026-04-19 20:15 -19.80685 -19.27398 37037 ft 464 kts 76°
2026-04-19 20:15 -19.79804 -19.24121 37173 ft 464 kts 76°
2026-04-19 20:16 -19.78921 -19.20837 37318 ft 463 kts 76°
2026-04-19 20:16 -19.78037 -19.17555 37455 ft 463 kts 76°
2026-04-19 20:16 -19.77154 -19.14278 37583 ft 463 kts 76°
2026-04-19 20:16 -19.76270 -19.11003 37704 ft 463 kts 76°
2026-04-19 20:17 -19.75386 -19.07729 37821 ft 463 kts 76°
2026-04-19 20:17 -19.74498 -19.04443 37934 ft 463 kts 76°
2026-04-19 20:17 -19.73613 -19.01169 38043 ft 464 kts 76°
2026-04-19 20:17 -19.72725 -18.97887 38149 ft 464 kts 76°
2026-04-19 20:18 -19.71838 -18.94608 38251 ft 464 kts 76°
2026-04-19 20:18 -19.70064 -18.88057 38451 ft 464 kts 76°
2026-04-19 20:19 -19.68287 -18.81505 38648 ft 464 kts 76°
2026-04-19 20:19 -19.66503 -18.74944 38833 ft 464 kts 76°
2026-04-19 20:20 -19.64720 -18.68394 38870 ft 464 kts 76°
2026-04-19 20:20 -19.62932 -18.61835 38873 ft 464 kts 76°
2026-04-19 20:21 -19.61144 -18.55288 38873 ft 464 kts 76°
2026-04-19 20:21 -19.59350 -18.48729 38873 ft 464 kts 76°
2026-04-19 20:22 -19.57556 -18.42180 38873 ft 464 kts 76°
2026-04-19 20:22 -19.55761 -18.35638 38875 ft 463 kts 76°
2026-04-19 20:22 -19.54878 -18.32431 38869 ft 445 kts 76°
2026-04-19 20:23 -19.54030 -18.29362 38863 ft 427 kts 76°
2026-04-19 20:23 -19.53214 -18.26405 38861 ft 410 kts 76°
2026-04-19 20:23 -19.52434 -18.23581 38858 ft 393 kts 76°
2026-04-19 20:23 -19.51684 -18.20863 38857 ft 378 kts 77°
2026-04-19 20:24 -19.50937 -18.18152 38870 ft 375 kts 77°
2026-04-19 20:24 -19.49467 -18.12808 38875 ft 374 kts 77°
2026-04-19 20:25 -19.48016 -18.07549 38876 ft 372 kts 77°
2026-04-19 20:25 -19.46559 -18.02278 38876 ft 370 kts 77°
2026-04-19 20:26 -19.45117 -17.97069 38876 ft 369 kts 77°
2026-04-19 20:26 -19.43681 -17.91889 38876 ft 367 kts 77°
2026-04-19 20:27 -19.42249 -17.86728 38876 ft 366 kts 77°
2026-04-19 20:27 -19.40820 -17.81586 38876 ft 364 kts 77°
2026-04-19 20:28 -19.39397 -17.76471 38876 ft 363 kts 77°
2026-04-19 20:28 -19.37979 -17.71379 38876 ft 361 kts 77°
2026-04-19 20:29 -19.36565 -17.66312 38876 ft 359 kts 77°
2026-04-19 20:29 -19.35154 -17.61259 38876 ft 358 kts 77°
2026-04-19 20:30 -19.33052 -17.53739 38884 ft 354 kts 77°
2026-04-19 20:30 -19.31671 -17.48813 38875 ft 347 kts 77°
2026-04-19 20:31 -19.30316 -17.43983 38872 ft 340 kts 77°
2026-04-19 20:31 -19.28989 -17.39256 38871 ft 333 kts 77°
2026-04-19 20:32 -19.27690 -17.34633 38871 ft 325 kts 77°
2026-04-19 20:32 -19.26417 -17.30108 38871 ft 319 kts 77°
2026-04-19 20:33 -19.25167 -17.25671 38871 ft 312 kts 77°
2026-04-19 20:33 -19.23946 -17.21338 38870 ft 305 kts 77°
2026-04-19 20:34 -19.22752 -17.17107 38869 ft 297 kts 77°
2026-04-19 20:34 -19.22166 -17.15034 38868 ft 293 kts 77°
2026-04-19 20:34 -19.21589 -17.12992 38867 ft 288 kts 77°
2026-04-19 20:35 -19.21022 -17.10986 38865 ft 283 kts 77°
2026-04-19 20:35 -19.20466 -17.09022 38863 ft 276 kts 77°
2026-04-19 20:35 -19.19923 -17.07107 38859 ft 269 kts 77°
2026-04-19 20:35 -19.19396 -17.05247 38828 ft 262 kts 78°
2026-04-19 20:36 -19.18878 -17.03401 38576 ft 265 kts 78°
2026-04-19 20:36 -19.18359 -17.01515 38238 ft 271 kts 78°
2026-04-19 20:36 -19.17840 -16.99589 37970 ft 275 kts 78°
2026-04-19 20:36 -19.17324 -16.97640 37762 ft 278 kts 79°
2026-04-19 20:37 -19.16813 -16.95674 37598 ft 279 kts 79°
2026-04-19 20:37 -19.16305 -16.93688 37467 ft 280 kts 79°
2026-04-19 20:37 -19.15805 -16.91705 37363 ft 280 kts 79°
2026-04-19 20:37 -19.15314 -16.89725 37278 ft 279 kts 80°
2026-04-19 20:38 -19.14828 -16.87736 37208 ft 278 kts 80°
2026-04-19 20:38 -19.14357 -16.85785 37150 ft 276 kts 81°
2026-04-19 20:38 -19.13893 -16.83833 37097 ft 274 kts 81°
2026-04-19 20:38 -19.13438 -16.81896 37048 ft 271 kts 81°
2026-04-19 20:39 -19.12994 -16.79978 36997 ft 268 kts 81°
2026-04-19 20:39 -19.12558 -16.78076 36940 ft 265 kts 82°
2026-04-19 20:39 -19.12135 -16.76203 36878 ft 261 kts 82°
2026-04-19 20:39 -19.11723 -16.74353 36809 ft 258 kts 82°
2026-04-19 20:40 -19.11320 -16.72522 36700 ft 256 kts 82°
2026-04-19 20:40 -19.10924 -16.70688 36525 ft 257 kts 82°
2026-04-19 20:40 -19.10534 -16.68845 36366 ft 258 kts 83°
2026-04-19 20:40 -19.10152 -16.67003 36237 ft 258 kts 83°
2026-04-19 20:41 -19.09777 -16.65160 36130 ft 257 kts 83°
2026-04-19 20:41 -19.09410 -16.63323 36037 ft 255 kts 83°
2026-04-19 20:41 -19.09053 -16.61501 35953 ft 253 kts 84°
2026-04-19 20:41 -19.08704 -16.59694 35859 ft 251 kts 84°
2026-04-19 20:42 -19.08363 -16.57890 35726 ft 252 kts 84°
2026-04-19 20:42 -19.08028 -16.56079 35591 ft 252 kts 84°
2026-04-19 20:42 -19.07701 -16.54271 35481 ft 251 kts 84°
2026-04-19 20:42 -19.07382 -16.52467 35387 ft 250 kts 85°
2026-04-19 20:43 -19.07071 -16.50673 35303 ft 248 kts 85°
2026-04-19 20:43 -19.06768 -16.48884 35198 ft 248 kts 85°
2026-04-19 20:43 -19.06472 -16.47094 35076 ft 248 kts 85°
2026-04-19 20:43 -19.06183 -16.45305 34972 ft 248 kts 86°
2026-04-19 20:44 -19.05902 -16.43518 34885 ft 247 kts 86°
2026-04-19 20:44 -19.05630 -16.41742 34803 ft 245 kts 86°
2026-04-19 20:44 -19.05364 -16.39968 34698 ft 245 kts 86°
2026-04-19 20:44 -19.05105 -16.38190 34592 ft 245 kts 87°
2026-04-19 20:45 -19.04854 -16.36417 34505 ft 244 kts 87°
2026-04-19 20:45 -19.04610 -16.34643 34428 ft 243 kts 87°
2026-04-19 20:45 -19.04374 -16.32879 34338 ft 243 kts 87°
2026-04-19 20:45 -19.04145 -16.31112 34238 ft 243 kts 87°
2026-04-19 20:46 -19.03931 -16.29403 34159 ft 243 kts 88°
2026-04-19 20:46 -19.03717 -16.27645 34093 ft 241 kts 88°
2026-04-19 20:46 -19.03510 -16.25892 34023 ft 240 kts 88°
2026-04-19 20:46 -19.03311 -16.24147 33934 ft 240 kts 88°
2026-04-19 20:47 -19.03120 -16.22399 33847 ft 240 kts 89°
2026-04-19 20:47 -19.02935 -16.20650 33780 ft 239 kts 89°
2026-04-19 20:47 -19.02758 -16.18912 33719 ft 238 kts 89°
2026-04-19 20:47 -19.02588 -16.17175 33639 ft 238 kts 89°
2026-04-19 20:48 -19.02426 -16.15439 33553 ft 238 kts 89°
2026-04-19 20:48 -19.02271 -16.13707 33485 ft 237 kts 90°
2026-04-19 20:48 -19.02123 -16.11979 33432 ft 236 kts 90°
2026-04-19 20:48 -19.01983 -16.10261 33366 ft 236 kts 90°
2026-04-19 20:49 -19.01850 -16.08540 33276 ft 236 kts 90°
2026-04-19 20:49 -19.01723 -16.06809 33202 ft 236 kts 91°
2026-04-19 20:49 -19.01605 -16.05090 33146 ft 235 kts 91°
2026-04-19 20:49 -19.01494 -16.03377 33100 ft 234 kts 91°
2026-04-19 20:50 -19.01389 -16.01671 33034 ft 234 kts 91°
2026-04-19 20:50 -19.01292 -15.99959 32950 ft 234 kts 91°
2026-04-19 20:50 -19.01203 -15.98248 32884 ft 234 kts 92°
2026-04-19 20:50 -19.01120 -15.96540 32835 ft 233 kts 92°
2026-04-19 20:51 -19.01045 -15.94844 32788 ft 232 kts 92°
2026-04-19 20:51 -19.00976 -15.93147 32717 ft 232 kts 92°
2026-04-19 20:51 -19.00915 -15.91455 32645 ft 232 kts 93°
2026-04-19 20:51 -19.00861 -15.89754 32543 ft 235 kts 93°
2026-04-19 20:52 -19.00810 -15.87959 32028 ft 262 kts 92°
2026-04-19 20:52 -19.00738 -15.85916 31185 ft 301 kts 91°
2026-04-19 20:52 -19.00637 -15.83608 30626 ft 326 kts 90°
2026-04-19 20:52 -19.00363 -15.81224 30761 ft 334 kts 75°
2026-04-19 20:53 -18.99305 -15.79017 30864 ft 346 kts 53°
2026-04-19 20:53 -18.97489 -15.77331 30990 ft 356 kts 31°
2026-04-19 20:53 -18.95158 -15.76426 31113 ft 365 kts
2026-04-19 20:53 -18.92626 -15.76438 31235 ft 372 kts 352°
2026-04-19 20:54 -18.90056 -15.76786 31346 ft 375 kts
2026-04-19 20:54 -18.87553 -15.76205 31404 ft 372 kts 30°
2026-04-19 20:54 -18.85385 -15.74766 31520 ft 372 kts 43°
2026-04-19 20:54 -18.83495 -15.72896 31651 ft 375 kts 50°
2026-04-19 20:55 -18.81765 -15.70825 31781 ft 379 kts 56°
2026-04-19 20:55 -18.80308 -15.68523 31883 ft 380 kts 65°
2026-04-19 20:55 -18.78389 -15.63334 32088 ft 385 kts 76°
2026-04-19 20:56 -18.77614 -15.60627 32194 ft 390 kts 76°
2026-04-19 20:56 -18.76827 -15.57887 32302 ft 394 kts 76°
2026-04-19 20:56 -18.76019 -15.55114 32410 ft 399 kts 76°
2026-04-19 20:56 -18.75195 -15.52317 32523 ft 403 kts 76°
2026-04-19 20:57 -18.74354 -15.49484 32634 ft 408 kts 76°
2026-04-19 20:57 -18.73502 -15.46627 32747 ft 412 kts 76°
2026-04-19 20:57 -18.72639 -15.43740 32856 ft 416 kts 76°
2026-04-19 20:57 -18.71768 -15.40831 32965 ft 420 kts 75°
2026-04-19 20:58 -18.70884 -15.37889 33073 ft 424 kts 76°
2026-04-19 20:58 -18.69991 -15.34918 33183 ft 428 kts 75°
2026-04-19 20:58 -18.69091 -15.31923 33292 ft 432 kts 75°
2026-04-19 20:58 -18.68182 -15.28902 33401 ft 436 kts 75°
2026-04-19 20:59 -18.67261 -15.25847 33511 ft 440 kts 75°
2026-04-19 20:59 -18.66335 -15.22777 33615 ft 444 kts 75°
2026-04-19 20:59 -18.65399 -15.19675 33720 ft 447 kts 75°
2026-04-19 20:59 -18.64458 -15.16556 33829 ft 451 kts 75°
2026-04-19 21:00 -18.63504 -15.13401 33931 ft 455 kts 75°
2026-04-19 21:00 -18.62545 -15.10228 34032 ft 458 kts 75°
2026-04-19 21:00 -18.61576 -15.07026 34144 ft 461 kts 75°
2026-04-19 21:00 -18.60600 -15.03803 34324 ft 462 kts 75°
2026-04-19 21:01 -18.59624 -15.00584 34562 ft 462 kts 75°
2026-04-19 21:01 -18.58650 -14.97375 34820 ft 461 kts 75°
2026-04-19 21:01 -18.57678 -14.94174 35070 ft 460 kts 75°
2026-04-19 21:01 -18.56706 -14.90974 35310 ft 460 kts 75°
2026-04-19 21:02 -18.55736 -14.87782 35534 ft 459 kts 75°
2026-04-19 21:02 -18.54764 -14.84586 35743 ft 459 kts 75°
2026-04-19 21:02 -18.53795 -14.81399 35957 ft 459 kts 75°
2026-04-19 21:02 -18.52827 -14.78219 36170 ft 458 kts 75°
2026-04-19 21:03 -18.51860 -14.75046 36377 ft 457 kts 75°
2026-04-19 21:03 -18.50891 -14.71868 36564 ft 457 kts 75°
2026-04-19 21:03 -18.49921 -14.68686 36741 ft 457 kts 75°
2026-04-19 21:03 -18.48951 -14.65508 36909 ft 457 kts 75°
2026-04-19 21:04 -18.47980 -14.62327 37068 ft 457 kts 75°
2026-04-19 21:04 -18.47011 -14.59156 37220 ft 457 kts 75°
2026-04-19 21:04 -18.46040 -14.55979 37371 ft 457 kts 75°
2026-04-19 21:04 -18.45068 -14.52806 37521 ft 457 kts 75°
2026-04-19 21:05 -18.44095 -14.49630 37672 ft 457 kts 75°
2026-04-19 21:05 -18.43123 -14.46457 37821 ft 457 kts 75°
2026-04-19 21:05 -18.42148 -14.43277 37959 ft 457 kts 75°
2026-04-19 21:05 -18.41176 -14.40106 38092 ft 457 kts 75°
2026-04-19 21:06 -18.40203 -14.36938 38221 ft 457 kts 75°
2026-04-19 21:06 -18.39229 -14.33768 38347 ft 457 kts 75°
2026-04-19 21:06 -18.38255 -14.30600 38476 ft 457 kts 75°
2026-04-19 21:06 -18.37279 -14.27428 38597 ft 457 kts 75°
2026-04-19 21:07 -18.36303 -14.24258 38711 ft 457 kts 75°
2026-04-19 21:07 -18.35326 -14.21087 38825 ft 457 kts 75°
2026-04-19 21:07 -18.33366 -14.14730 38870 ft 458 kts 75°
2026-04-19 21:08 -18.31408 -14.08386 38873 ft 458 kts 75°
2026-04-19 21:08 -18.29446 -14.02042 38873 ft 457 kts 75°
2026-04-19 21:09 -18.27482 -13.95697 38875 ft 457 kts 75°
2026-04-19 21:09 -18.25518 -13.89359 38887 ft 457 kts 75°
2026-04-19 21:10 -18.23556 -13.83037 38894 ft 456 kts 75°
2026-04-19 21:10 -18.21592 -13.76718 38898 ft 456 kts 75°
2026-04-19 21:11 -18.19627 -13.70404 38898 ft 456 kts 75°
2026-04-19 21:11 -18.17657 -13.64079 38898 ft 456 kts 75°
2026-04-19 21:12 -18.15687 -13.57762 38898 ft 456 kts 75°
2026-04-19 21:12 -18.13715 -13.51450 38898 ft 456 kts 75°
2026-04-19 21:13 -18.11739 -13.45130 38898 ft 456 kts 75°
2026-04-19 21:13 -18.09761 -13.38814 38899 ft 456 kts 75°
2026-04-19 21:14 -18.07784 -13.32507 38899 ft 456 kts 75°
2026-04-19 21:14 -18.05801 -13.26193 38898 ft 456 kts 75°
2026-04-19 21:15 -18.03817 -13.19882 38898 ft 456 kts 75°
2026-04-19 21:15 -18.01825 -13.13552 38897 ft 458 kts 75°
2026-04-19 21:16 -17.99823 -13.07196 38897 ft 461 kts 74°
2026-04-19 21:16 -17.97809 -13.00809 38897 ft 463 kts 74°
2026-04-19 21:17 -17.95783 -12.94393 38898 ft 466 kts 74°
2026-04-19 21:17 -17.93742 -12.87947 38898 ft 466 kts 74°
2026-04-19 21:18 -17.91703 -12.81512 38898 ft 466 kts 74°
2026-04-19 21:18 -17.89663 -12.75078 38897 ft 466 kts 74°
2026-04-19 21:19 -17.87617 -12.68635 38898 ft 466 kts 74°
2026-04-19 21:19 -17.85571 -12.62203 38898 ft 466 kts 74°
2026-04-19 21:20 -17.83526 -12.55778 38898 ft 466 kts 74°
2026-04-19 21:20 -17.81477 -12.49349 38898 ft 466 kts 74°
2026-04-19 21:21 -17.79426 -12.42924 38898 ft 466 kts 74°
2026-04-19 21:21 -17.77373 -12.36500 38898 ft 466 kts 74°
2026-04-19 21:22 -17.75321 -12.30083 38899 ft 466 kts 74°
2026-04-19 21:22 -17.73264 -12.23660 38898 ft 466 kts 74°
2026-04-19 21:23 -17.71204 -12.17239 38898 ft 466 kts 74°
2026-04-19 21:23 -17.69144 -12.10824 38898 ft 466 kts 74°
2026-04-19 21:24 -17.67081 -12.04406 38898 ft 466 kts 74°
2026-04-19 21:24 -17.65016 -11.97993 38898 ft 466 kts 74°
2026-04-19 21:25 -17.62950 -11.91581 38898 ft 466 kts 74°
2026-04-19 21:25 -17.60881 -11.85171 38898 ft 466 kts 74°
2026-04-19 21:26 -17.58809 -11.78758 38898 ft 466 kts 74°
2026-04-19 21:26 -17.56737 -11.72354 38898 ft 466 kts 74°
2026-04-19 21:27 -17.54662 -11.65946 38898 ft 466 kts 74°
2026-04-19 21:27 -17.52583 -11.59537 38898 ft 466 kts 74°
2026-04-19 21:28 -17.50508 -11.53145 38898 ft 466 kts 74°
2026-04-19 21:28 -17.48771 -11.47804 38898 ft 466 kts 74°
2026-04-19 21:29 -17.46344 -11.40344 38898 ft 466 kts 74°
2026-04-19 21:29 -17.44258 -11.33943 38899 ft 466 kts 73°
2026-04-19 21:30 -17.42171 -11.27548 38898 ft 466 kts 73°
2026-04-19 21:30 -17.40084 -11.21158 38898 ft 466 kts 73°
2026-04-19 21:31 -17.37991 -11.14759 38898 ft 466 kts 73°
2026-04-19 21:31 -17.35897 -11.08365 38898 ft 466 kts 73°
2026-04-19 21:32 -17.33803 -11.01979 38898 ft 466 kts 73°
2026-04-19 21:32 -17.31701 -10.95571 38898 ft 468 kts 73°
2026-04-19 21:33 -17.29586 -10.89133 38897 ft 471 kts 73°
2026-04-19 21:33 -17.27455 -10.82655 38897 ft 474 kts 73°
2026-04-19 21:34 -17.25309 -10.76141 38898 ft 476 kts 73°
2026-04-19 21:34 -17.23158 -10.69621 38898 ft 476 kts 73°
2026-04-19 21:35 -17.20999 -10.63090 38898 ft 477 kts 73°
2026-04-19 21:35 -17.18840 -10.56559 38899 ft 477 kts 73°
2026-04-19 21:36 -17.16681 -10.50039 38899 ft 476 kts 73°
2026-04-19 21:36 -17.14519 -10.43518 38899 ft 477 kts 73°
2026-04-19 21:37 -17.12354 -10.36993 38899 ft 477 kts 73°
2026-04-19 21:37 -17.10185 -10.30462 38898 ft 478 kts 73°
2026-04-19 21:38 -17.08006 -10.23910 38897 ft 481 kts 72°
2026-04-19 21:38 -17.05811 -10.17320 38898 ft 483 kts 72°
2026-04-19 21:39 -17.03604 -10.10712 38898 ft 485 kts 71°
2026-04-19 21:39 -17.01386 -10.04077 38898 ft 486 kts 71°
2026-04-19 21:40 -16.98680 -9.93918 38899 ft 486 kts 77°
2026-04-19 21:41 -16.97192 -9.87065 38898 ft 486 kts 77°
2026-04-19 21:41 -16.95696 -9.80198 38899 ft 486 kts 77°
2026-04-19 21:42 -16.94193 -9.73354 38899 ft 486 kts 77°
2026-04-19 21:42 -16.92686 -9.66511 38899 ft 486 kts 77°
2026-04-19 21:43 -16.91176 -9.59663 38899 ft 486 kts 77°
2026-04-19 21:43 -16.89662 -9.52810 38899 ft 486 kts 77°
2026-04-19 21:44 -16.88148 -9.45972 38898 ft 486 kts 77°
2026-04-19 21:44 -16.86631 -9.39130 38898 ft 485 kts 77°
2026-04-19 21:45 -16.85134 -9.32388 38897 ft 485 kts 77°
2026-04-19 21:45 -16.83611 -9.25535 38898 ft 485 kts 76°
2026-04-19 21:46 -16.82084 -9.18683 38898 ft 485 kts 76°
2026-04-19 21:46 -16.80557 -9.11840 38899 ft 485 kts 76°
2026-04-19 21:47 -16.79029 -9.04997 38898 ft 487 kts 76°
2026-04-19 21:47 -16.77489 -8.98116 38898 ft 490 kts 76°
2026-04-19 21:48 -16.75939 -8.91201 38898 ft 492 kts 76°
2026-04-19 21:48 -16.74379 -8.84254 38898 ft 495 kts 76°
2026-04-19 21:49 -16.72811 -8.77291 38898 ft 495 kts 76°
2026-04-19 21:49 -16.71241 -8.70323 38898 ft 495 kts 76°
2026-04-19 21:50 -16.69670 -8.63366 38898 ft 495 kts 76°
2026-04-19 21:50 -16.68095 -8.56402 38898 ft 495 kts 76°
2026-04-19 21:51 -16.66522 -8.49452 38898 ft 495 kts 76°
2026-04-19 21:51 -16.64942 -8.42490 38898 ft 495 kts 76°
2026-04-19 21:52 -16.63362 -8.35536 38898 ft 495 kts 76°
2026-04-19 21:52 -16.61781 -8.28585 38898 ft 495 kts 76°
2026-04-19 21:53 -16.60196 -8.21633 38898 ft 495 kts 76°
2026-04-19 21:53 -16.58608 -8.14675 38898 ft 495 kts 76°
2026-04-19 21:54 -16.57018 -8.07725 38898 ft 495 kts 76°
2026-04-19 21:54 -16.55428 -8.00780 38898 ft 495 kts 76°
2026-04-19 21:55 -16.53832 -7.93827 38898 ft 495 kts 76°
2026-04-19 21:55 -16.52235 -7.86875 38899 ft 495 kts 76°
2026-04-19 21:56 -16.50638 -7.79934 38898 ft 495 kts 76°
2026-04-19 21:56 -16.49037 -7.72989 38898 ft 495 kts 76°
2026-04-19 21:57 -16.47435 -7.66050 38898 ft 495 kts 76°
2026-04-19 21:57 -16.45829 -7.59107 38899 ft 495 kts 76°
2026-04-19 21:58 -16.44221 -7.52164 38898 ft 494 kts 76°
2026-04-19 21:58 -16.42611 -7.45226 38899 ft 495 kts 76°
2026-04-19 21:59 -16.40994 -7.38268 38899 ft 495 kts 76°
2026-04-19 21:59 -16.39385 -7.31353 38897 ft 494 kts 75°
2026-04-19 22:00 -16.37768 -7.24414 38898 ft 494 kts 75°
2026-04-19 22:00 -16.36149 -7.17482 38898 ft 495 kts 75°
2026-04-19 22:01 -16.34524 -7.10525 38897 ft 498 kts 75°
2026-04-19 22:01 -16.32880 -7.03498 38897 ft 503 kts 75°
2026-04-19 22:02 -16.31220 -6.96421 38897 ft 507 kts 75°
2026-04-19 22:02 -16.29545 -6.89299 38898 ft 509 kts 74°
2026-04-19 22:03 -16.27863 -6.82157 38899 ft 510 kts 74°
2026-04-19 22:03 -16.26178 -6.75004 38899 ft 510 kts 74°
2026-04-19 22:04 -16.24493 -6.67869 38899 ft 510 kts 74°
2026-04-19 22:04 -16.22805 -6.60732 38899 ft 510 kts 74°
2026-04-19 22:05 -16.21117 -6.53601 38899 ft 510 kts 74°
2026-04-19 22:05 -16.19422 -6.46456 38899 ft 510 kts 74°
2026-04-19 22:06 -16.17727 -6.39324 38899 ft 510 kts 75°
2026-04-19 22:06 -16.16029 -6.32183 38896 ft 510 kts 74°
2026-04-19 22:07 -16.14329 -6.25055 38898 ft 510 kts 74°
2026-04-19 22:07 -16.12628 -6.17925 38898 ft 510 kts 74°
2026-04-19 22:08 -16.10923 -6.10800 38899 ft 509 kts 74°
2026-04-19 22:08 -16.09219 -6.03681 38898 ft 509 kts 74°
2026-04-19 22:09 -16.07508 -5.96549 38899 ft 510 kts 74°
2026-04-19 22:09 -16.05793 -5.89422 38899 ft 510 kts 75°
2026-04-19 22:10 -16.04079 -5.82276 38899 ft 511 kts 75°
2026-04-19 22:10 -16.02363 -5.75143 38899 ft 511 kts 75°
2026-04-19 22:11 -16.00643 -5.68010 38899 ft 511 kts 75°
2026-04-19 22:11 -15.98920 -5.60885 38899 ft 511 kts 75°
2026-04-19 22:12 -15.97192 -5.53748 38899 ft 511 kts 75°
2026-04-19 22:12 -15.95464 -5.46622 38899 ft 511 kts 75°
2026-04-19 22:13 -15.93727 -5.39471 38899 ft 511 kts 75°
2026-04-19 22:13 -15.91975 -5.32270 38896 ft 511 kts 74°
2026-04-19 22:14 -15.90239 -5.25147 38898 ft 511 kts 74°
2026-04-19 22:14 -15.88498 -5.18025 38899 ft 511 kts 74°
2026-04-19 22:15 -15.86787 -5.11035 38899 ft 511 kts 74°
2026-04-19 22:15 -15.85032 -5.03878 38899 ft 511 kts 74°
2026-04-19 22:16 -15.83013 -4.96876 38898 ft 510 kts 68°
2026-04-19 22:16 -15.80645 -4.90143 38898 ft 511 kts 67°
2026-04-19 22:17 -15.78181 -4.83249 38898 ft 511 kts 66°
2026-04-19 22:17 -15.75716 -4.76338 38898 ft 512 kts 66°
2026-04-19 22:18 -15.73248 -4.69409 38899 ft 512 kts 66°
2026-04-19 22:18 -15.70774 -4.62463 38898 ft 512 kts 66°
2026-04-19 22:19 -15.68276 -4.55455 38898 ft 512 kts 66°
2026-04-19 22:19 -15.65798 -4.48509 38899 ft 512 kts 66°
2026-04-19 22:20 -15.63305 -4.41528 38898 ft 512 kts 66°
2026-04-19 22:20 -15.60819 -4.34573 38898 ft 512 kts 66°
2026-04-19 22:21 -15.58349 -4.27669 38897 ft 512 kts 66°
2026-04-19 22:21 -15.55882 -4.20783 38898 ft 512 kts 66°
2026-04-19 22:22 -15.53373 -4.13789 38899 ft 512 kts 66°
2026-04-19 22:22 -15.50871 -4.06822 38899 ft 512 kts 66°
2026-04-19 22:23 -15.48389 -3.99918 38899 ft 512 kts 66°
2026-04-19 22:23 -15.45878 -3.92941 38899 ft 512 kts 66°
2026-04-19 22:24 -15.43408 -3.86085 38899 ft 512 kts 66°
2026-04-19 22:24 -15.40925 -3.79199 38899 ft 512 kts 66°
2026-04-19 22:25 -15.38431 -3.72294 38899 ft 512 kts 66°
2026-04-19 22:25 -15.35872 -3.65212 38899 ft 512 kts 66°
2026-04-19 22:26 -15.33376 -3.58316 38899 ft 512 kts 66°
2026-04-19 22:26 -15.30854 -3.51355 38899 ft 512 kts 66°
2026-04-19 22:27 -15.28326 -3.44382 38899 ft 512 kts 66°
2026-04-19 22:27 -15.25805 -3.37438 38899 ft 512 kts 66°
2026-04-19 22:28 -15.23299 -3.30544 38896 ft 512 kts 66°
2026-04-19 22:28 -15.20802 -3.23682 38898 ft 512 kts 66°
2026-04-19 22:29 -15.18304 -3.16823 38898 ft 511 kts 66°
2026-04-19 22:29 -15.15788 -3.09922 38898 ft 512 kts 66°
2026-04-19 22:30 -15.13256 -3.02985 38898 ft 513 kts 66°
2026-04-19 22:30 -15.10699 -2.95989 38898 ft 516 kts 66°
2026-04-19 22:31 -15.08131 -2.88971 38898 ft 519 kts 66°
2026-04-19 22:31 -15.05560 -2.81951 38899 ft 520 kts 66°
2026-04-19 22:32 -15.02991 -2.74940 38899 ft 520 kts 66°
2026-04-19 22:32 -15.00430 -2.67958 38899 ft 521 kts 65°
2026-04-19 22:33 -14.97833 -2.60884 38899 ft 522 kts 65°
2026-04-19 22:33 -14.95248 -2.53856 38899 ft 522 kts 65°
2026-04-19 22:34 -14.92644 -2.46784 38899 ft 523 kts 65°
2026-04-19 22:34 -14.90195 -2.40138 38899 ft 523 kts 65°
2026-04-19 22:35 -14.87605 -2.33119 38895 ft 523 kts 64°
2026-04-19 22:35 -14.85027 -2.26141 38898 ft 523 kts 64°
2026-04-19 22:36 -14.82427 -2.19113 38899 ft 523 kts 64°
2026-04-19 22:36 -14.79792 -2.11995 38899 ft 523 kts 64°
2026-04-19 22:37 -14.77199 -2.04997 38899 ft 523 kts 64°
2026-04-19 22:37 -14.74606 -1.98005 38899 ft 523 kts 64°
2026-04-19 22:38 -14.72008 -1.91009 38899 ft 523 kts 64°
2026-04-19 22:38 -14.69411 -1.84023 38899 ft 523 kts 64°
2026-04-19 22:39 -14.66814 -1.77042 38899 ft 523 kts 64°
2026-04-19 22:39 -14.64215 -1.70065 38899 ft 523 kts 64°
2026-04-19 22:40 -14.61568 -1.62964 38899 ft 523 kts 64°
2026-04-19 22:40 -14.58892 -1.55795 38899 ft 523 kts 64°
2026-04-19 22:41 -14.56257 -1.48745 38899 ft 523 kts 64°
2026-04-19 22:41 -14.53630 -1.41719 38899 ft 523 kts 64°
2026-04-19 22:42 -14.50969 -1.34614 38898 ft 523 kts 64°
2026-04-19 22:42 -14.48369 -1.27676 38897 ft 523 kts 64°
2026-04-19 22:43 -14.45756 -1.20712 38898 ft 523 kts 64°
2026-04-19 22:43 -14.43046 -1.13495 38898 ft 523 kts 64°
2026-04-19 22:44 -14.40371 -1.06381 38898 ft 524 kts 64°
2026-04-19 22:44 -14.37681 -0.99236 38898 ft 525 kts 64°
2026-04-19 22:45 -14.35023 -0.92182 38899 ft 526 kts 64°
2026-04-19 22:45 -14.32345 -0.85079 38899 ft 527 kts 64°
2026-04-19 22:46 -14.29687 -0.78039 38899 ft 527 kts 64°
2026-04-19 22:46 -14.26989 -0.70900 38899 ft 527 kts 64°
2026-04-19 22:47 -14.24286 -0.63754 38899 ft 527 kts 64°
2026-04-19 22:47 -14.21624 -0.56728 38899 ft 527 kts 64°
2026-04-19 22:48 -14.18948 -0.49668 38899 ft 527 kts 64°
2026-04-19 22:48 -14.16212 -0.42458 38899 ft 527 kts 64°
2026-04-19 22:49 -14.13528 -0.35394 38899 ft 527 kts 64°
2026-04-19 22:49 -14.10866 -0.28396 38897 ft 526 kts 64°
2026-04-19 22:50 -14.08201 -0.21401 38898 ft 526 kts 64°
2026-04-19 22:50 -14.05522 -0.14375 38899 ft 526 kts 64°
2026-04-19 22:51 -14.02814 -0.07288 38899 ft 526 kts 64°
2026-04-19 22:51 -13.98846 0.03264 38899 ft 527 kts 65°
2026-04-19 22:52 -13.96411 0.10416 38899 ft 528 kts 66°
2026-04-19 22:52 -13.93958 0.17646 38899 ft 528 kts 66°
2026-04-19 22:53 -13.91520 0.24760 38899 ft 528 kts 66°
2026-04-19 22:53 -13.89062 0.31894 38900 ft 527 kts 66°
2026-04-19 22:54 -13.86610 0.38996 38899 ft 527 kts 66°
2026-04-19 22:54 -13.84136 0.46150 38899 ft 527 kts 66°
2026-04-19 22:55 -13.81665 0.53294 38899 ft 527 kts 66°
2026-04-19 22:55 -13.79207 0.60389 38898 ft 527 kts 66°
2026-04-19 22:56 -13.76755 0.67462 38894 ft 527 kts 65°
2026-04-19 22:56 -13.74293 0.74555 38898 ft 527 kts 65°
2026-04-19 22:57 -13.71812 0.81696 38899 ft 527 kts 65°
2026-04-19 22:57 -13.69337 0.88811 38899 ft 527 kts 65°
2026-04-19 22:58 -13.66864 0.95915 38899 ft 527 kts 65°
2026-04-19 22:58 -13.64378 1.03047 38899 ft 526 kts 65°
2026-04-19 22:59 -13.61908 1.10129 38899 ft 525 kts 65°
2026-04-19 22:59 -13.59450 1.17170 38899 ft 523 kts 65°
2026-04-19 23:00 -13.57002 1.24171 38899 ft 522 kts 65°
2026-04-19 23:00 -13.54553 1.31167 38899 ft 522 kts 65°
2026-04-19 23:01 -13.52110 1.38143 38899 ft 522 kts 65°
2026-04-19 23:01 -13.49657 1.45136 38899 ft 522 kts 65°
2026-04-19 23:02 -13.47205 1.52124 38899 ft 522 kts 65°
2026-04-19 23:02 -13.44749 1.59112 38899 ft 522 kts 65°
2026-04-19 23:03 -13.42296 1.66088 38896 ft 522 kts 65°
2026-04-19 23:03 -13.39839 1.73069 38897 ft 522 kts 65°
2026-04-19 23:04 -13.37382 1.80040 38898 ft 521 kts 65°
2026-04-19 23:04 -13.34921 1.87017 38899 ft 521 kts 65°
2026-04-19 23:05 -13.32423 1.94092 38899 ft 521 kts 65°
2026-04-19 23:05 -13.29893 2.01250 38899 ft 521 kts 65°
2026-04-19 23:06 -13.27376 2.08365 38899 ft 521 kts 65°
2026-04-19 23:06 -13.24867 2.15449 38899 ft 521 kts 65°
2026-04-19 23:07 -13.22386 2.22448 38899 ft 521 kts 65°
2026-04-19 23:07 -13.19909 2.29429 38899 ft 521 kts 65°
2026-04-19 23:08 -13.17438 2.36389 38899 ft 521 kts 65°
2026-04-19 23:08 -13.14965 2.43344 38899 ft 521 kts 65°
2026-04-19 23:09 -13.12488 2.50305 38898 ft 521 kts 65°
2026-04-19 23:09 -13.09994 2.57290 38907 ft 525 kts 66°
2026-04-19 23:10 -13.07505 2.64291 38918 ft 524 kts 66°
2026-04-19 23:10 -13.05017 2.71272 38919 ft 523 kts 65°
2026-04-19 23:11 -13.02524 2.78254 38916 ft 522 kts 65°
2026-04-19 23:11 -13.00037 2.85208 38906 ft 521 kts 65°
2026-04-19 23:12 -12.97555 2.92141 38893 ft 520 kts 65°
2026-04-19 23:12 -12.95072 2.99062 38883 ft 520 kts 65°
2026-04-19 23:13 -12.92584 3.05995 38878 ft 520 kts 66°
2026-04-19 23:13 -12.90094 3.12931 38875 ft 521 kts 66°
2026-04-19 23:14 -12.87601 3.19879 38874 ft 521 kts 66°
2026-04-19 23:14 -12.85105 3.26825 38874 ft 521 kts 66°
2026-04-19 23:15 -12.82609 3.33763 38874 ft 521 kts 66°
2026-04-19 23:15 -12.80110 3.40699 38874 ft 521 kts 66°
2026-04-19 23:16 -12.77608 3.47636 38874 ft 521 kts 66°
2026-04-19 23:16 -12.75125 3.54515 38874 ft 521 kts 66°
2026-04-19 23:17 -12.72619 3.61454 38874 ft 521 kts 66°
2026-04-19 23:17 -12.70113 3.68384 38870 ft 521 kts 66°
2026-04-19 23:18 -12.67608 3.75306 38873 ft 521 kts 66°
2026-04-19 23:18 -12.65099 3.82230 38874 ft 521 kts 66°
2026-04-19 23:19 -12.62587 3.89158 38874 ft 521 kts 66°
2026-04-19 23:19 -12.60075 3.96077 38874 ft 521 kts 66°
2026-04-19 23:20 -12.57561 4.02997 38874 ft 521 kts 66°
2026-04-19 23:20 -12.55047 4.09908 38874 ft 521 kts 66°
2026-04-19 23:21 -12.52526 4.16831 38874 ft 521 kts 66°
2026-04-19 23:21 -12.50005 4.23743 38874 ft 521 kts 66°
2026-04-19 23:22 -12.47479 4.30657 38874 ft 521 kts 66°
2026-04-19 23:22 -12.44927 4.37546 38874 ft 520 kts 65°
2026-04-19 23:23 -12.42281 4.44391 38874 ft 520 kts 64°
2026-04-19 23:23 -12.39622 4.51238 38874 ft 520 kts 64°
2026-04-19 23:24 -12.36967 4.58083 38874 ft 520 kts 64°
2026-04-19 23:24 -12.34314 4.64926 38874 ft 520 kts 64°
2026-04-19 23:25 -12.31659 4.71773 38872 ft 520 kts 64°
2026-04-19 23:25 -12.29007 4.78603 38874 ft 520 kts 64°
2026-04-19 23:26 -12.26356 4.85427 38874 ft 519 kts 64°
2026-04-19 23:26 -12.23710 4.92234 38875 ft 516 kts 64°
2026-04-19 23:27 -12.21074 4.99008 38875 ft 513 kts 64°
2026-04-19 23:27 -12.18452 5.05740 38874 ft 511 kts 64°
2026-04-19 23:28 -12.15841 5.12439 38874 ft 510 kts 64°
2026-04-19 23:28 -12.13228 5.19139 38874 ft 510 kts 64°
2026-04-19 23:29 -12.10609 5.25844 38874 ft 510 kts 64°
2026-04-19 23:29 -12.07988 5.32554 38874 ft 510 kts 64°
2026-04-19 23:30 -12.05370 5.39250 38874 ft 510 kts 64°
2026-04-19 23:30 -12.02746 5.45955 38874 ft 510 kts 64°
2026-04-19 23:31 -12.00172 5.52525 38874 ft 510 kts 64°
2026-04-19 23:31 -11.97548 5.59222 38874 ft 510 kts 64°
2026-04-19 23:32 -11.94919 5.65921 38872 ft 510 kts 64°
2026-04-19 23:32 -11.93229 5.70226 38872 ft 510 kts 64°
2026-04-19 23:33 -11.90603 5.76911 38874 ft 510 kts 64°
2026-04-19 23:33 -11.87973 5.83602 38874 ft 510 kts 64°
2026-04-19 23:34 -11.85341 5.90292 38874 ft 510 kts 64°
2026-04-19 23:34 -11.82709 5.96976 38874 ft 510 kts 64°
2026-04-19 23:35 -11.80076 6.03659 38874 ft 509 kts 64°
2026-04-19 23:35 -11.77443 6.10335 38874 ft 509 kts 64°
2026-04-19 23:36 -11.74799 6.17034 38874 ft 509 kts 64°
2026-04-19 23:36 -11.72169 6.23689 38874 ft 510 kts 64°
2026-04-19 23:37 -11.69526 6.30375 38874 ft 510 kts 64°
2026-04-19 23:37 -11.66885 6.37055 38874 ft 510 kts 64°
2026-04-19 23:38 -11.64243 6.43727 38874 ft 510 kts 64°
2026-04-19 23:38 -11.61600 6.50397 38874 ft 509 kts 64°
2026-04-19 23:39 -11.58955 6.57068 38874 ft 510 kts 64°
2026-04-19 23:39 -11.56303 6.63751 38874 ft 510 kts 64°
2026-04-19 23:40 -11.53657 6.70417 38872 ft 509 kts 64°
2026-04-19 23:40 -11.51009 6.77077 38873 ft 509 kts 64°
2026-04-19 23:41 -11.48361 6.83737 38874 ft 509 kts 64°
2026-04-19 23:41 -11.45708 6.90404 38874 ft 509 kts 64°
2026-04-19 23:42 -11.43055 6.97060 38874 ft 509 kts 64°
2026-04-19 23:42 -11.40403 7.03713 38874 ft 508 kts 64°
2026-04-19 23:43 -11.37755 7.10350 38874 ft 507 kts 64°
2026-04-19 23:43 -11.35114 7.16963 38874 ft 506 kts 64°
2026-04-19 23:44 -11.32477 7.23565 38874 ft 504 kts 64°
2026-04-19 23:44 -11.29842 7.30157 38874 ft 504 kts 64°
2026-04-19 23:45 -11.27238 7.36665 38874 ft 504 kts 64°
2026-04-19 23:45 -11.24670 7.43075 38874 ft 504 kts 64°
2026-04-19 23:46 -11.22032 7.49661 38874 ft 504 kts 64°
2026-04-19 23:46 -11.19396 7.56233 38874 ft 504 kts 64°
2026-04-19 23:47 -11.16754 7.62812 38874 ft 504 kts 64°
2026-04-19 23:47 -11.14107 7.69403 38872 ft 504 kts 64°
2026-04-19 23:48 -11.11463 7.75975 38873 ft 504 kts 64°
2026-04-19 23:48 -11.08818 7.82547 38874 ft 504 kts 64°
2026-04-19 23:49 -11.06166 7.89126 38874 ft 504 kts 64°
2026-04-19 23:49 -11.03517 7.95689 38873 ft 504 kts 64°
2026-04-19 23:50 -11.01004 8.02341 38874 ft 504 kts 68°
2026-04-19 23:50 -10.99206 8.09188 38874 ft 505 kts 76°
2026-04-19 23:51 -10.98036 8.16214 38875 ft 505 kts 78°
2026-04-19 23:51 -10.96953 8.23244 38874 ft 504 kts 78°
2026-04-19 23:52 -10.95856 8.30244 38874 ft 503 kts 78°
2026-04-19 23:52 -10.94745 8.37236 38874 ft 502 kts 78°
2026-04-19 23:53 -10.93627 8.44238 38874 ft 501 kts 78°
2026-04-19 23:53 -10.92517 8.51180 38874 ft 500 kts 78°
2026-04-19 23:54 -10.91404 8.58124 38874 ft 499 kts 78°
2026-04-19 23:54 -10.90292 8.65052 38874 ft 498 kts 78°
2026-04-19 23:55 -10.89180 8.71965 38874 ft 497 kts 78°
2026-04-19 23:55 -10.88069 8.78863 38874 ft 495 kts 78°
2026-04-19 23:56 -10.86959 8.85750 38874 ft 495 kts 78°
2026-04-19 23:56 -10.85845 8.92638 38873 ft 496 kts 78°
2026-04-19 23:57 -10.84726 8.99542 38873 ft 498 kts 78°
2026-04-19 23:57 -10.83603 9.06468 38873 ft 499 kts 79°
2026-04-19 23:58 -10.82473 9.13427 38873 ft 501 kts 79°
2026-04-19 23:58 -10.81361 9.20299 38874 ft 501 kts 79°
2026-04-19 23:59 -10.80228 9.27272 38874 ft 502 kts 79°
2026-04-19 23:59 -10.79094 9.34238 38874 ft 502 kts 79°
2026-04-20 00:00 -10.77957 9.41210 38873 ft 502 kts 79°
2026-04-20 00:00 -10.76818 9.48186 38873 ft 502 kts 79°
2026-04-20 00:01 -10.75679 9.55150 38873 ft 502 kts 79°
2026-04-20 00:02 -10.73965 9.65608 38873 ft 501 kts 79°
2026-04-20 00:02 -10.72822 9.72570 38873 ft 501 kts 79°
2026-04-20 00:03 -10.71678 9.79532 38873 ft 501 kts 79°
2026-04-20 00:03 -10.70530 9.86500 38874 ft 501 kts 79°
2026-04-20 00:04 -10.69431 9.93164 38874 ft 501 kts 79°
2026-04-20 00:04 -10.68280 10.00139 38874 ft 501 kts 79°
2026-04-20 00:05 -10.67128 10.07106 38874 ft 501 kts 79°
2026-04-20 00:05 -10.65971 10.14095 38874 ft 501 kts 79°
2026-04-20 00:06 -10.64820 10.21041 38874 ft 501 kts 79°
2026-04-20 00:06 -10.63661 10.28012 38874 ft 501 kts 79°
2026-04-20 00:07 -10.62505 10.34971 38874 ft 502 kts 79°
2026-04-20 00:07 -10.61346 10.41931 38874 ft 501 kts 79°
2026-04-20 00:08 -10.60185 10.48896 38874 ft 501 kts 79°
2026-04-20 00:08 -10.59023 10.55856 38874 ft 501 kts 79°
2026-04-20 00:09 -10.57858 10.62820 38874 ft 501 kts 79°
2026-04-20 00:09 -10.56689 10.69784 38872 ft 502 kts 79°
2026-04-20 00:10 -10.55522 10.76767 38704 ft 503 kts 79°
2026-04-20 00:10 -10.54938 10.80258 38456 ft 503 kts 79°
2026-04-20 00:10 -10.54356 10.83737 38210 ft 502 kts 79°
2026-04-20 00:10 -10.53770 10.87229 37962 ft 502 kts 79°
2026-04-20 00:11 -10.53185 10.90708 37714 ft 502 kts 79°
2026-04-20 00:11 -10.52600 10.94184 37467 ft 502 kts 79°
2026-04-20 00:11 -10.52015 10.97659 37220 ft 501 kts 79°
2026-04-20 00:11 -10.51428 11.01140 36972 ft 501 kts 79°
2026-04-20 00:12 -10.50842 11.04616 36724 ft 501 kts 79°
2026-04-20 00:12 -10.50256 11.08087 36477 ft 501 kts 79°
2026-04-20 00:12 -10.49666 11.11577 36227 ft 501 kts 79°
2026-04-20 00:12 -10.49083 11.15033 35981 ft 501 kts 79°
2026-04-20 00:13 -10.48495 11.18505 35733 ft 501 kts 79°
2026-04-20 00:13 -10.47906 11.21986 35485 ft 502 kts 79°
2026-04-20 00:13 -10.47319 11.25455 35238 ft 502 kts 79°
2026-04-20 00:13 -10.46728 11.28940 34990 ft 503 kts 79°
2026-04-20 00:14 -10.46136 11.32432 34741 ft 504 kts 79°
2026-04-20 00:14 -10.45544 11.35925 34493 ft 504 kts 79°
2026-04-20 00:14 -10.44950 11.39422 34245 ft 505 kts 79°
2026-04-20 00:14 -10.44355 11.42923 33997 ft 505 kts 79°
2026-04-20 00:15 -10.43785 11.46271 33760 ft 506 kts 79°
2026-04-20 00:15 -10.43194 11.49739 33514 ft 506 kts 79°
2026-04-20 00:15 -10.42595 11.53251 33266 ft 507 kts 79°
2026-04-20 00:15 -10.42055 11.56420 33042 ft 507 kts 79°
2026-04-20 00:16 -10.41454 11.59944 32879 ft 507 kts 80°
2026-04-20 00:16 -10.40264 11.66930 32872 ft 508 kts 79°
2026-04-20 00:17 -10.39110 11.73688 32875 ft 508 kts 79°
2026-04-20 00:17 -10.38068 11.79781 32869 ft 508 kts 79°
2026-04-20 00:17 -10.37596 11.82537 32709 ft 502 kts 79°
2026-04-20 00:18 -10.35411 11.95254 31794 ft 497 kts 80°
2026-04-20 00:19 -10.34818 11.98701 31546 ft 497 kts 80°
2026-04-20 00:19 -10.34226 12.02142 31298 ft 498 kts 80°
2026-04-20 00:19 -10.33633 12.05594 31050 ft 498 kts 80°
2026-04-20 00:19 -10.33039 12.09045 30802 ft 498 kts 81°
2026-04-20 00:20 -10.32446 12.12488 30553 ft 497 kts 81°
2026-04-20 00:20 -10.31878 12.15784 30315 ft 494 kts 81°
2026-04-20 00:20 -10.31289 12.19197 30066 ft 492 kts 81°
2026-04-20 00:20 -10.30701 12.22604 29818 ft 490 kts 81°
2026-04-20 00:21 -10.30116 12.25991 29569 ft 488 kts 81°
2026-04-20 00:21 -10.29534 12.29360 29321 ft 485 kts 81°
2026-04-20 00:21 -10.28953 12.32719 29072 ft 483 kts 81°
2026-04-20 00:21 -10.28376 12.36056 28824 ft 481 kts 81°
2026-04-20 00:22 -10.27800 12.39382 28570 ft 478 kts 81°
2026-04-20 00:22 -10.27227 12.42687 28316 ft 476 kts 81°
2026-04-20 00:22 -10.26656 12.45976 28074 ft 475 kts 81°
2026-04-20 00:22 -10.26110 12.49125 27838 ft 472 kts 81°
2026-04-20 00:23 -10.25543 12.52391 27590 ft 470 kts 82°
2026-04-20 00:23 -10.24980 12.55632 27342 ft 467 kts 82°
2026-04-20 00:23 -10.24418 12.58867 27093 ft 465 kts 82°
2026-04-20 00:23 -10.23859 12.62073 26846 ft 463 kts 82°
2026-04-20 00:24 -10.23300 12.65272 26585 ft 460 kts 81°
2026-04-20 00:24 -10.22743 12.68455 26342 ft 458 kts 82°
2026-04-20 00:24 -10.22188 12.71623 26092 ft 456 kts 82°
2026-04-20 00:24 -10.21637 12.74776 25843 ft 454 kts 82°
2026-04-20 00:25 -10.21090 12.77904 25598 ft 451 kts 82°
2026-04-20 00:25 -10.20543 12.81027 25358 ft 449 kts 82°
2026-04-20 00:25 -10.20001 12.84124 25121 ft 446 kts 82°
2026-04-20 00:25 -10.19463 12.87194 24764 ft 442 kts 82°
2026-04-20 00:26 -10.18928 12.90245 24318 ft 439 kts 82°
2026-04-20 00:26 -10.18396 12.93274 23890 ft 436 kts 82°
2026-04-20 00:26 -10.17868 12.96287 23481 ft 433 kts 82°
2026-04-20 00:26 -10.17329 12.99260 23118 ft 429 kts 79°
2026-04-20 00:27 -10.16280 13.02069 22855 ft 428 kts 62°
2026-04-20 00:27 -10.14462 13.04443 22611 ft 430 kts 44°
2026-04-20 00:27 -10.12107 13.06285 22395 ft 429 kts 36°
2026-04-20 00:27 -10.09666 13.07978 22176 ft 428 kts 34°
2026-04-20 00:28 -10.07247 13.09631 21901 ft 425 kts 34°
2026-04-20 00:28 -10.04845 13.11281 21595 ft 424 kts 35°
2026-04-20 00:28 -10.02461 13.12930 21276 ft 422 kts 35°
2026-04-20 00:28 -10.00074 13.14591 20931 ft 420 kts 35°
2026-04-20 00:29 -9.97730 13.16228 20591 ft 418 kts 35°
2026-04-20 00:29 -9.95395 13.17862 20249 ft 416 kts 35°
2026-04-20 00:29 -9.93078 13.19486 19907 ft 414 kts 35°
2026-04-20 00:29 -9.90779 13.21096 19564 ft 412 kts 35°
2026-04-20 00:30 -9.89402 13.22062 19354 ft 410 kts 35°
2026-04-20 00:30 -9.89177 13.22219 19320 ft 410 kts 35°
2026-04-20 00:30 -9.86904 13.23812 18973 ft 408 kts 35°
2026-04-20 00:31 -9.84637 13.25402 18622 ft 406 kts 35°
2026-04-20 00:31 -9.82371 13.26990 18270 ft 403 kts 35°
2026-04-20 00:31 -9.80054 13.28613 17908 ft 401 kts 35°
2026-04-20 00:31 -9.77839 13.30165 17555 ft 399 kts 35°
2026-04-20 00:32 -9.75576 13.31750 17197 ft 396 kts 35°
2026-04-20 00:32 -9.73327 13.33326 16839 ft 394 kts 35°
2026-04-20 00:32 -9.71093 13.34890 16480 ft 391 kts 35°
2026-04-20 00:32 -9.68874 13.36444 16122 ft 389 kts 35°
2026-04-20 00:33 -9.66664 13.37991 15764 ft 387 kts 35°
2026-04-20 00:33 -9.64477 13.39522 15407 ft 385 kts 35°
2026-04-20 00:33 -9.62291 13.41052 15049 ft 383 kts 35°
2026-04-20 00:33 -9.60118 13.42572 14691 ft 381 kts 35°
2026-04-20 00:34 -9.57958 13.44083 14334 ft 378 kts 35°
2026-04-20 00:34 -9.55806 13.45588 13976 ft 376 kts 35°
2026-04-20 00:34 -9.53672 13.47081 13619 ft 374 kts 35°
2026-04-20 00:34 -9.51551 13.48564 13264 ft 371 kts 35°
2026-04-20 00:35 -9.49440 13.50040 12886 ft 370 kts 35°
2026-04-20 00:35 -9.47358 13.51496 12521 ft 367 kts 35°
2026-04-20 00:35 -9.45269 13.52956 12161 ft 365 kts 35°
2026-04-20 00:35 -9.43200 13.54402 11805 ft 362 kts 35°
2026-04-20 00:36 -9.41142 13.55839 11446 ft 360 kts 35°
2026-04-20 00:36 -9.39094 13.57268 11089 ft 358 kts 35°
2026-04-20 00:36 -9.37067 13.58683 10732 ft 356 kts 35°
2026-04-20 00:36 -9.35046 13.60094 10376 ft 353 kts 35°
2026-04-20 00:37 -9.33041 13.61494 10024 ft 349 kts 36°
2026-04-20 00:37 -9.31079 13.62862 9794 ft 338 kts 36°
2026-04-20 00:37 -9.29183 13.64185 9587 ft 327 kts 36°
2026-04-20 00:37 -9.27345 13.65466 9387 ft 318 kts 36°
2026-04-20 00:38 -9.25559 13.66711 9193 ft 308 kts 36°
2026-04-20 00:38 -9.23828 13.67918 8994 ft 299 kts 36°
2026-04-20 00:38 -9.22162 13.69079 8750 ft 290 kts 36°
2026-04-20 00:38 -9.20511 13.70229 8373 ft 287 kts 36°
2026-04-20 00:39 -9.18878 13.71367 7959 ft 286 kts 36°
2026-04-20 00:39 -9.17262 13.72494 7556 ft 284 kts 36°
2026-04-20 00:39 -9.15652 13.73617 7157 ft 282 kts 36°
2026-04-20 00:39 -9.14052 13.74733 6761 ft 280 kts 36°
2026-04-20 00:40 -9.12489 13.75855 6368 ft 278 kts 39°
2026-04-20 00:40 -9.10993 13.77071 6074 ft 277 kts 41°
2026-04-20 00:40 -9.09540 13.78280 5897 ft 273 kts 41°
2026-04-20 00:40 -9.08124 13.79462 5884 ft 274 kts 41°
2026-04-20 00:41 -9.06663 13.80680 5882 ft 275 kts 41°
2026-04-20 00:41 -9.05201 13.81897 5881 ft 275 kts 41°
2026-04-20 00:41 -9.03745 13.83109 5880 ft 275 kts 41°
2026-04-20 00:41 -9.02289 13.84320 5880 ft 275 kts 41°
2026-04-20 00:42 -9.00830 13.85533 5880 ft 275 kts 41°
2026-04-20 00:42 -8.99223 13.86559 5860 ft 277 kts 20°
2026-04-20 00:42 -8.97339 13.86712 5690 ft 279 kts 350°
2026-04-20 00:42 -8.95617 13.85905 5378 ft 283 kts 320°
2026-04-20 00:43 -8.94501 13.84390 5091 ft 284 kts 294°
2026-04-20 00:43 -8.93778 13.82614 4852 ft 283 kts 290°
2026-04-20 00:43 -8.93109 13.80818 4599 ft 279 kts 290°
2026-04-20 00:43 -8.92442 13.79071 4439 ft 271 kts 291°
2026-04-20 00:44 -8.91775 13.77384 4274 ft 263 kts 292°
2026-04-20 00:44 -8.91112 13.75741 4109 ft 255 kts 292°
2026-04-20 00:44 -8.90469 13.74153 3864 ft 252 kts 289°
2026-04-20 00:44 -8.90192 13.72525 3552 ft 250 kts 263°
2026-04-20 00:45 -8.90674 13.70938 3236 ft 245 kts 235°
2026-04-20 00:45 -8.91625 13.69579 2975 ft 240 kts 229°
2026-04-20 00:45 -8.92613 13.68318 2762 ft 234 kts 228°
2026-04-20 00:45 -8.93591 13.67067 2676 ft 222 kts 229°
2026-04-20 00:46 -8.94483 13.65903 2646 ft 208 kts 229°
2026-04-20 00:46 -8.95315 13.64801 2631 ft 203 kts 229°
2026-04-20 00:46 -8.96133 13.63712 2618 ft 203 kts 229°
2026-04-20 00:46 -8.96948 13.62621 2597 ft 203 kts 229°
2026-04-20 00:47 -8.97763 13.61527 2443 ft 204 kts 230°
2026-04-20 00:47 -8.98592 13.60412 2181 ft 203 kts 230°
2026-04-20 00:47 -8.99406 13.59313 1927 ft 199 kts 229°
2026-04-20 00:47 -9.00200 13.58242 1675 ft 195 kts 229°
2026-04-20 00:48 -9.00973 13.57199 1429 ft 190 kts 229°
2026-04-20 00:48 -9.01725 13.56185 1177 ft 183 kts 229°
2026-04-20 00:48 -9.02450 13.55206 975 ft 175 kts 229°
2026-04-20 00:48 -9.03117 13.54303 931 ft 158 kts 228°
2026-04-20 00:49 -9.03752 13.53446 934 ft 155 kts 228°
2026-04-20 00:49 -9.04381 13.52605 775 ft 155 kts 228°
2026-04-20 00:49 -9.05013 13.51767 671 ft 153 kts 227°
2026-04-20 00:49 -9.05626 13.50961 571 ft 152 kts 227°
2026-04-20 00:50 -9.06165 13.50290 570 ft 96 kts 203°
2026-04-20 00:50 -9.06599 13.50077 571 ft 53 kts 165°
2026-04-20 00:50 -9.06857 13.50068 568 ft 25 kts 211°
2026-04-20 00:50 -9.06929 13.49962 570 ft 14 kts 267°
2026-04-20 00:51 -9.06887 13.49915 571 ft 10 kts 358°
2026-04-20 00:51 -9.06879 13.49930 571 ft 3 kts 128°
2026-04-20 00:51 -9.06896 13.49939 570 ft 2 kts 173°
2026-04-20 00:51 -9.06906 13.49936 570 ft 1 kts 194°
2026-04-20 00:52 -9.06913 13.49935 570 ft 1 kts 194°
2026-04-20 00:52 -9.06916 13.49933 570 ft 0 kts 208°
2026-04-20 00:52 -9.06918 13.49929 570 ft 3 kts 253°
2026-04-20 00:52 -9.06890 13.49943 570 ft 5 kts 161°
2026-04-20 00:53 -9.06916 13.49933 570 ft 3 kts 218°
2026-04-20 00:53 -9.06928 13.49929 570 ft 1 kts 172°
2026-04-20 00:53 -9.06934 13.49938 570 ft 2 kts 104°
2026-04-20 00:53 -9.06932 13.49959 570 ft 6 kts 79°
2026-04-20 00:54 -9.06909 13.49997 569 ft 8 kts 46°
2026-04-20 00:54 -9.06858 13.50033 569 ft 10 kts 24°
2026-04-20 00:54 -9.06790 13.50062 569 ft 9 kts 17°
2026-04-20 00:54 -9.06674 13.50049 571 ft 25 kts 338°
2026-04-20 00:55 -9.06495 13.49951 573 ft 33 kts 331°
2026-04-20 00:55 -9.06280 13.49847 569 ft 34 kts 332°
2026-04-20 00:55 -9.06078 13.49733 566 ft 33 kts 324°
2026-04-20 00:55 -9.05903 13.49607 563 ft 29 kts 328°
2026-04-20 00:56 -9.05744 13.49534 561 ft 21 kts 355°
2026-04-20 00:56 -9.05683 13.49591 562 ft 13 kts 108°
2026-04-20 00:56 -9.05705 13.49618 562 ft 1 kts 145°
2026-04-20 00:56 -9.05688 13.49633 562 ft 4 kts 344°
2026-04-20 00:57 -9.05676 13.49630 563 ft 7 kts 12°
2026-04-20 00:57 -9.05657 13.49641 564 ft 7 kts
2026-04-20 00:57 -9.05570 13.49650 566 ft 19 kts 68°
2026-04-20 00:57 -9.05583 13.49742 567 ft 9 kts 113°
2026-04-20 00:58 -9.05568 13.49772 568 ft 5 kts 18°
2026-04-20 00:58 -9.05556 13.49772 568 ft 0 kts 359°